Regional Weather Roundup
Issued by NWS

Home | Current Version | Previous Version | Graphics & Text | Print | Product List | Glossary On
Versions: 1 2 3 4 5 6 7 8 9 10 11 12 13 14 15 16 17 18 19 20 21 22 23 24 25 26 27 28 29 30 31 32 33 34 35 36 37 38 39 40 41 42 43 44 45 46 47 48 49 50
000
ASUS43 KIND 030409
RWRIN

WEATHER ROUNDUP FOR INDIANA
NATIONAL WEATHER SERVICE INDIANAPOLIS IN
1100 PM EST FRI DEC 02 2016

NOTE: "FAIR" INDICATES FEW OR NO CLOUDS BELOW 12,000 FEET WITH NO
SIGNIFICANT WEATHER AND/OR OBSTRUCTIONS TO VISIBILITY.

* - STATION DOES NOT REPORT WEATHER SUCH AS PRECIPITATION OR FOG.

+ - STATION NOT QUALITY CONTROLLED BY THE NATIONAL WEATHER SERVICE.
    USE DATA WITH CAUTION...ESPECIALLY DEWPOINT AND RELATIVE
    HUMIDITY OBSERVATIONS.

INZ001>003-010>013-019-020-030500-
NORTHWEST INDIANA

CITY           SKY/WX    TMP DP  RH WIND       PRES   REMARKS
GARY /AIRPORT/ CLOUDY    38  26  61 W9        30.32R
LA PORTE +     CLOUDY    38  34  86 CALM      30.30R
MICHIGAN CITY+ CLOUDY    36  28  75 NW5       30.30S
MONTICELLO +   CLOUDY    36  30  78 W5        30.30S
RENSSELAER +     N/A     36  34  93 W5        30.32R
VALPARAISO     CLOUDY    37  26  64 W8        30.30S

$$

LMZ046-743>745-030500-
SOUTHERN LAKE MICHIGAN

STATION/POSITION TIME  TEMP    WIND        PRES    WAVE
                       AIR SEA DIR/SP/G            HT
                 (UTC) (F)     (DEG/KT/KT) (MB)    (FT)
BURNS HARBOR     0340   39     270/ 12/ 14 1026.4R
MICHIGAN CITY    0340   38     270/ 11/ 13   N/A

$$

INZ004-005-014>016-021>024-030500-
NORTH CENTRAL INDIANA

CITY           SKY/WX    TMP DP  RH WIND       PRES   REMARKS
GOSHEN         CLOUDY    35  27  72 W5        30.28S WCI  31
LOGANSPORT +   CLOUDY    34  32  93 W5        30.31S WCI  30
PERU/GRISSOM   CLOUDY    36  35  95 W6        30.28R
ROCHESTER +    CLOUDY    37  36  93 CALM      30.30R
SOUTH BEND     NOT AVBL
WARSAW +       CLOUDY    34  28  80 W3        30.29S

$$

INZ006>009-017-018-025>027-030500-
NORTHEAST INDIANA

CITY           SKY/WX    TMP DP  RH WIND       PRES   REMARKS
ANGOLA *+      CLOUDY    36  28  75 NW3       30.26R
AUBURN +       CLOUDY    34  28  80 W3        30.27F
FORT WAYNE     NOT AVBL
HUNTINGTON +   CLOUDY    36  31  82 NW5       30.29S
KENDALLVILLE + CLOUDY    34  28  79 NW3       30.27R

$$

INZ028-029-035-036-043>045-051>053-030500-
WEST CENTRAL INDIANA

CITY           SKY/WX    TMP DP  RH WIND       PRES   REMARKS
CRAWFORDSVL +  CLOUDY    36  34  94 W5        30.32R
GREENCASTLE +  CLOUDY    36  34  93 CALM      30.32S
LAFAYETTE      NOT AVBL
TERRE HAUTE    CLOUDY    39  31  72 CALM      30.34S

$$

INZ030>032-037>040-046>048-054>057-064-065-030500-
CENTRAL INDIANA

CITY           SKY/WX    TMP DP  RH WIND       PRES   REMARKS
CP ATTERBURY + CLOUDY    37  32  81 NW3       30.33S
FRANKFORT +    CLOUDY    38  34  85 NW5       30.32S
GREENWOOD *+   CLOUDY    38  35  88 CALM      30.31S
INDIANAPOLIS   CLOUDY    37  34  89 W6        30.31S
-EAGLE CREEK   CLOUDY    38  34  85 SW3       30.31R
KOKOMO +       CLOUDY    37  32  82 W8        30.31R
MARION +       CLOUDY    36  33  88 W9        30.30R FOG
MT COMFORT *+  CLOUDY    36  34  93 W5        30.31R
SHELBYVILLE    CLOUDY    37  33  85 NW3       30.30F
ZIONSVILLE +   CLOUDY    36  32  87 W5        30.31S

$$

INZ033-034-041-042-049-050-058-059-030500-
EAST CENTRAL INDIANA

CITY           SKY/WX    TMP DP  RH WIND       PRES   REMARKS
MUNCIE         CLOUDY    38  32  79 W5        30.29R

$$

INZ060-061-067>069-081>083-085>088-030500-
SOUTHWEST INDIANA

CITY           SKY/WX    TMP DP  RH WIND       PRES   REMARKS
EVANSVILLE     PTCLDY    34  29  82 CALM      30.36S
HUNTINGBURG *+ CLOUDY    39  31  72 CALM      30.35S
WASHINGTON +   CLOUDY    39  34  81 W3        30.35R

$$

INZ062-063-066-070>080-084-089>092-030500-
SOUTH CENTRAL AND SOUTHEAST INDIANA

CITY           SKY/WX    TMP DP  RH WIND       PRES   REMARKS
BLOOMINGTON    CLOUDY    39  30  70 W3        30.32S
MADISON *+     CLOUDY    37  32  81 CALM      30.33S
NORTH VERNON + CLOUDY   N/A N/A N/A CALM      30.32S
SEYMOUR +      CLOUDY    41  32  70 NW3       30.33S

$$




USA.gov is the U.S. government's official web portal to all federal, state and local government web resources and services.